owner,sensor,date,latitude,longitude,sea_surface_height_above_sea_level,qcFlag 
DISL,ioos:station:DISL:DISL:1,2017-11-01T00:30:00Z,30.2513,-88.0778,1.971,1111122 
DISL,ioos:station:DISL:DISL:1,2017-11-01T01:30:00Z,30.2513,-88.0778,2.063,1111122 
DISL,ioos:station:DISL:DISL:1,2017-11-01T02:30:00Z,30.2513,-88.0778,2.095,1111122 
DISL,ioos:station:DISL:DISL:1,2017-11-01T03:30:00Z,30.2513,-88.0778,2.098,1111122 
DISL,ioos:station:DISL:DISL:1,2017-11-01T04:30:00Z,30.2513,-88.0778,2.111,1111122 
DISL,ioos:station:DISL:DISL:1,2017-11-01T05:30:00Z,30.2513,-88.0778,2.122,1111122 
DISL,ioos:station:DISL:DISL:1,2017-11-01T06:30:00Z,30.2513,-88.0778,2.111,1111122 
DISL,ioos:station:DISL:DISL:1,2017-11-01T07:30:00Z,30.2513,-88.0778,2.1,1111122 
DISL,ioos:station:DISL:DISL:1,2017-11-01T08:30:00Z,30.2513,-88.0778,2.101,1111122 
DISL,ioos:station:DISL:DISL:1,2017-11-01T09:30:00Z,30.2513,-88.0778,2.108,1111122 
DISL,ioos:station:DISL:DISL:1,2017-11-01T10:30:00Z,30.2513,-88.0778,2.114,1111122 
DISL,ioos:station:DISL:DISL:1,2017-11-01T11:30:00Z,30.2513,-88.0778,2.127,1111122 
DISL,ioos:station:DISL:DISL:1,2017-11-01T12:30:00Z,30.2513,-88.0778,2.132,1111122 
DISL,ioos:station:DISL:DISL:1,2017-11-01T13:30:00Z,30.2513,-88.0778,2.155,1111122 
DISL,ioos:station:DISL:DISL:1,2017-11-01T14:30:00Z,30.2513,-88.0778,2.187,1111122 
DISL,ioos:station:DISL:DISL:1,2017-11-01T15:30:00Z,30.2513,-88.0778,2.196,1111122 
DISL,ioos:station:DISL:DISL:1,2017-11-01T16:30:00Z,30.2513,-88.0778,2.233,1111122 
DISL,ioos:station:DISL:DISL:1,2017-11-01T17:30:00Z,30.2513,-88.0778,2.231,1111122 
DISL,ioos:station:DISL:DISL:1,2017-11-01T18:30:00Z,30.2513,-88.0778,2.232,1111122 
DISL,ioos:station:DISL:DISL:1,2017-11-01T19:30:00Z,30.2513,-88.0778,2.239,1111122 
DISL,ioos:station:DISL:DISL:1,2017-11-01T20:30:00Z,30.2513,-88.0778,2.234,1111122 
DISL,ioos:station:DISL:DISL:1,2017-11-01T21:30:00Z,30.2513,-88.0778,2.264,1111122 
DISL,ioos:station:DISL:DISL:1,2017-11-01T22:30:00Z,30.2513,-88.0778,2.255,1111122 
DISL,ioos:station:DISL:DISL:1,2017-11-01T23:30:00Z,30.2513,-88.0778,2.259,1111122 
DISL,ioos:station:DISL:DISL:1,2017-11-02T00:30:00Z,30.2513,-88.0778,2.27,1111122 
DISL,ioos:station:DISL:DISL:1,2017-11-02T01:30:00Z,30.2513,-88.0778,2.294,1111122 
DISL,ioos:station:DISL:DISL:1,2017-11-02T02:30:00Z,30.2513,-88.0778,2.287,1111122 
DISL,ioos:station:DISL:DISL:1,2017-11-02T03:30:00Z,30.2513,-88.0778,2.301,1111122 
DISL,ioos:station:DISL:DISL:1,2017-11-02T04:30:00Z,30.2513,-88.0778,2.316,1111122 
DISL,ioos:station:DISL:DISL:1,2017-11-02T05:30:00Z,30.2513,-88.0778,2.3,1111122 
DISL,ioos:station:DISL:DISL:1,2017-11-02T06:30:00Z,30.2513,-88.0778,2.282,1111122 
DISL,ioos:station:DISL:DISL:1,2017-11-02T07:30:00Z,30.2513,-88.0778,2.258,1111122 
DISL,ioos:station:DISL:DISL:1,2017-11-02T08:30:00Z,30.2513,-88.0778,2.234,1111122 
DISL,ioos:station:DISL:DISL:1,2017-11-02T09:30:00Z,30.2513,-88.0778,2.203,1111122 
DISL,ioos:station:DISL:DISL:1,2017-11-02T10:30:00Z,30.2513,-88.0778,2.184,1111122 
DISL,ioos:station:DISL:DISL:1,2017-11-02T11:30:00Z,30.2513,-88.0778,2.151,1111122 
DISL,ioos:station:DISL:DISL:1,2017-11-02T12:30:00Z,30.2513,-88.0778,2.142,1111122 
DISL,ioos:station:DISL:DISL:1,2017-11-02T13:30:00Z,30.2513,-88.0778,2.15,1111122 
DISL,ioos:station:DISL:DISL:1,2017-11-02T14:30:00Z,30.2513,-88.0778,2.169,1111122 
DISL,ioos:station:DISL:DISL:1,2017-11-02T15:30:00Z,30.2513,-88.0778,2.172,1111122 
DISL,ioos:station:DISL:DISL:1,2017-11-02T16:30:00Z,30.2513,-88.0778,2.189,1111122 
DISL,ioos:station:DISL:DISL:1,2017-11-02T17:30:00Z,30.2513,-88.0778,2.196,1111122 
DISL,ioos:station:DISL:DISL:1,2017-11-02T18:30:00Z,30.2513,-88.0778,2.203,1111122 
DISL,ioos:station:DISL:DISL:1,2017-11-02T19:30:00Z,30.2513,-88.0778,2.201,1111122 
DISL,ioos:station:DISL:DISL:1,2017-11-02T20:30:00Z,30.2513,-88.0778,2.214,1111122 
DISL,ioos:station:DISL:DISL:1,2017-11-02T21:30:00Z,30.2513,-88.0778,2.21,1111122 
DISL,ioos:station:DISL:DISL:1,2017-11-02T22:30:00Z,30.2513,-88.0778,2.235,1111122 
DISL,ioos:station:DISL:DISL:1,2017-11-02T23:30:00Z,30.2513,-88.0778,2.235,1111122 
DISL,ioos:station:DISL:DISL:1,2017-11-03T00:30:00Z,30.2513,-88.0778,2.246,1111122 
DISL,ioos:station:DISL:DISL:1,2017-11-03T01:30:00Z,30.2513,-88.0778,2.259,1111122 
DISL,ioos:station:DISL:DISL:1,2017-11-03T02:30:00Z,30.2513,-88.0778,2.272,1111122 
DISL,ioos:station:DISL:DISL:1,2017-11-03T03:30:00Z,30.2513,-88.0778,2.282,1111122 
DISL,ioos:station:DISL:DISL:1,2017-11-03T04:30:00Z,30.2513,-88.0778,2.281,1111122 
DISL,ioos:station:DISL:DISL:1,2017-11-03T05:30:00Z,30.2513,-88.0778,2.252,1111122 
DISL,ioos:station:DISL:DISL:1,2017-11-03T06:30:00Z,30.2513,-88.0778,2.217,1111122 
DISL,ioos:station:DISL:DISL:1,2017-11-03T07:30:00Z,30.2513,-88.0778,2.169,1111122 
DISL,ioos:station:DISL:DISL:1,2017-11-03T08:30:00Z,30.2513,-88.0778,2.121,1111122 
DISL,ioos:station:DISL:DISL:1,2017-11-03T09:30:00Z,30.2513,-88.0778,2.096,1111122 
DISL,ioos:station:DISL:DISL:1,2017-11-03T10:30:00Z,30.2513,-88.0778,2.056,1111122 
DISL,ioos:station:DISL:DISL:1,2017-11-03T11:30:00Z,30.2513,-88.0778,2.05,1111122 
DISL,ioos:station:DISL:DISL:1,2017-11-03T12:30:00Z,30.2513,-88.0778,2.023,1111122 
DISL,ioos:station:DISL:DISL:1,2017-11-03T13:30:00Z,30.2513,-88.0778,2.067,1111122 
DISL,ioos:station:DISL:DISL:1,2017-11-03T14:30:00Z,30.2513,-88.0778,2.034,1111122 
DISL,ioos:station:DISL:DISL:1,2017-11-03T15:30:00Z,30.2513,-88.0778,2.055,1111122 
DISL,ioos:station:DISL:DISL:1,2017-11-03T16:30:00Z,30.2513,-88.0778,2.095,1111122 
DISL,ioos:station:DISL:DISL:1,2017-11-03T17:30:00Z,30.2513,-88.0778,2.134,1111122 
DISL,ioos:station:DISL:DISL:1,2017-11-03T18:30:00Z,30.2513,-88.0778,2.184,1111122 
DISL,ioos:station:DISL:DISL:1,2017-11-03T19:30:00Z,30.2513,-88.0778,2.19,1111122 
DISL,ioos:station:DISL:DISL:1,2017-11-03T20:30:00Z,30.2513,-88.0778,2.214,1111122 
DISL,ioos:station:DISL:DISL:1,2017-11-03T21:30:00Z,30.2513,-88.0778,2.251,1111122 
DISL,ioos:station:DISL:DISL:1,2017-11-03T22:30:00Z,30.2513,-88.0778,2.279,1111122 
DISL,ioos:station:DISL:DISL:1,2017-11-04T00:30:00Z,30.2513,-88.0778,2.335,1111122 
DISL,ioos:station:DISL:DISL:1,2017-11-04T01:30:00Z,30.2513,-88.0778,2.392,1111122 
DISL,ioos:station:DISL:DISL:1,2017-11-04T02:30:00Z,30.2513,-88.0778,2.373,1111122 
DISL,ioos:station:DISL:DISL:1,2017-11-04T03:30:00Z,30.2513,-88.0778,2.401,1111122 
DISL,ioos:station:DISL:DISL:1,2017-11-04T04:30:00Z,30.2513,-88.0778,2.378,1111122 
DISL,ioos:station:DISL:DISL:1,2017-11-04T05:30:00Z,30.2513,-88.0778,2.346,1111122 
DISL,ioos:station:DISL:DISL:1,2017-11-04T06:30:00Z,30.2513,-88.0778,2.282,1111122 
DISL,ioos:station:DISL:DISL:1,2017-11-04T07:30:00Z,30.2513,-88.0778,2.224,1111122 
DISL,ioos:station:DISL:DISL:1,2017-11-04T08:30:00Z,30.2513,-88.0778,2.163,1111122 
DISL,ioos:station:DISL:DISL:1,2017-11-04T09:30:00Z,30.2513,-88.0778,2.1,1111122 
DISL,ioos:station:DISL:DISL:1,2017-11-04T10:30:00Z,30.2513,-88.0778,2.063,1111122 
DISL,ioos:station:DISL:DISL:1,2017-11-04T11:30:00Z,30.2513,-88.0778,2.026,1111122 
DISL,ioos:station:DISL:DISL:1,2017-11-04T12:30:00Z,30.2513,-88.0778,1.98,1111122 
DISL,ioos:station:DISL:DISL:1,2017-11-04T13:30:00Z,30.2513,-88.0778,1.964,1111122 
DISL,ioos:station:DISL:DISL:1,2017-11-04T14:30:00Z,30.2513,-88.0778,1.973,1111122 
DISL,ioos:station:DISL:DISL:1,2017-11-04T15:30:00Z,30.2513,-88.0778,1.982,1111122 
DISL,ioos:station:DISL:DISL:1,2017-11-04T16:30:00Z,30.2513,-88.0778,2.012,1111122 
DISL,ioos:station:DISL:DISL:1,2017-11-04T17:30:00Z,30.2513,-88.0778,2.05,1111122 
DISL,ioos:station:DISL:DISL:1,2017-11-04T18:30:00Z,30.2513,-88.0778,2.084,1111122 
DISL,ioos:station:DISL:DISL:1,2017-11-04T19:00:00Z,30.2513,-88.0778,2.104,1111122 
DISL,ioos:station:DISL:DISL:1,2017-11-04T20:30:00Z,30.2513,-88.0778,2.15,1111122 
DISL,ioos:station:DISL:DISL:1,2017-11-04T21:30:00Z,30.2513,-88.0778,2.208,1111122 
DISL,ioos:station:DISL:DISL:1,2017-11-04T22:30:00Z,30.2513,-88.0778,2.25,1111122 
DISL,ioos:station:DISL:DISL:1,2017-11-04T23:30:00Z,30.2513,-88.0778,2.301,1111122 
DISL,ioos:station:DISL:DISL:1,2017-11-05T00:30:00Z,30.2513,-88.0778,2.351,1111122 
DISL,ioos:station:DISL:DISL:1,2017-11-05T01:30:00Z,30.2513,-88.0778,2.403,1111122 
DISL,ioos:station:DISL:DISL:1,2017-11-05T02:00:00Z,30.2513,-88.0778,2.403,1111122 
DISL,ioos:station:DISL:DISL:1,2017-11-05T03:30:00Z,30.2513,-88.0778,2.435,1111122 
DISL,ioos:station:DISL:DISL:1,2017-11-05T04:30:00Z,30.2513,-88.0778,2.433,1111122 
DISL,ioos:station:DISL:DISL:1,2017-11-05T05:30:00Z,30.2513,-88.0778,2.417,1111122 
DISL,ioos:station:DISL:DISL:1,2017-11-05T06:30:00Z,30.2513,-88.0778,2.359,1111122 
DISL,ioos:station:DISL:DISL:1,2017-11-05T08:30:00Z,30.2513,-88.0778,2.234,1111122 
DISL,ioos:station:DISL:DISL:1,2017-11-05T09:30:00Z,30.2513,-88.0778,2.172,1111122 
DISL,ioos:station:DISL:DISL:1,2017-11-05T10:30:00Z,30.2513,-88.0778,2.095,1111122 
DISL,ioos:station:DISL:DISL:1,2017-11-05T11:30:00Z,30.2513,-88.0778,2.053,1111122 
DISL,ioos:station:DISL:DISL:1,2017-11-05T12:30:00Z,30.2513,-88.0778,2.032,1111122 
DISL,ioos:station:DISL:DISL:1,2017-11-05T13:30:00Z,30.2513,-88.0778,1.973,1111122 
DISL,ioos:station:DISL:DISL:1,2017-11-05T14:30:00Z,30.2513,-88.0778,1.964,1111122 
DISL,ioos:station:DISL:DISL:1,2017-11-05T15:30:00Z,30.2513,-88.0778,1.975,1111122 
DISL,ioos:station:DISL:DISL:1,2017-11-05T16:30:00Z,30.2513,-88.0778,1.982,1111122 
DISL,ioos:station:DISL:DISL:1,2017-11-05T17:30:00Z,30.2513,-88.0778,2.001,1111122 
DISL,ioos:station:DISL:DISL:1,2017-11-05T18:30:00Z,30.2513,-88.0778,2.041,1111122 
DISL,ioos:station:DISL:DISL:1,2017-11-05T19:30:00Z,30.2513,-88.0778,2.075,1111122 
DISL,ioos:station:DISL:DISL:1,2017-11-05T20:30:00Z,30.2513,-88.0778,2.173,1111122 
DISL,ioos:station:DISL:DISL:1,2017-11-05T21:30:00Z,30.2513,-88.0778,2.179,1111122 
DISL,ioos:station:DISL:DISL:1,2017-11-05T22:30:00Z,30.2513,-88.0778,2.243,1111122 
DISL,ioos:station:DISL:DISL:1,2017-11-05T23:30:00Z,30.2513,-88.0778,2.312,1111122 
DISL,ioos:station:DISL:DISL:1,2017-11-06T00:30:00Z,30.2513,-88.0778,2.375,1111122 
DISL,ioos:station:DISL:DISL:1,2017-11-06T01:30:00Z,30.2513,-88.0778,2.429,1111122 
DISL,ioos:station:DISL:DISL:1,2017-11-06T02:30:00Z,30.2513,-88.0778,2.467,1111122 
DISL,ioos:station:DISL:DISL:1,2017-11-06T03:30:00Z,30.2513,-88.0778,2.503,1111122 
DISL,ioos:station:DISL:DISL:1,2017-11-06T04:30:00Z,30.2513,-88.0778,2.512,1111122 
DISL,ioos:station:DISL:DISL:1,2017-11-06T05:30:00Z,30.2513,-88.0778,2.494,1111122 
DISL,ioos:station:DISL:DISL:1,2017-11-06T06:30:00Z,30.2513,-88.0778,2.446,1111122 
DISL,ioos:station:DISL:DISL:1,2017-11-06T07:30:00Z,30.2513,-88.0778,2.389,1111122 
DISL,ioos:station:DISL:DISL:1,2017-11-06T08:30:00Z,30.2513,-88.0778,2.303,1111122 
DISL,ioos:station:DISL:DISL:1,2017-11-06T09:30:00Z,30.2513,-88.0778,2.24,1111122 
DISL,ioos:station:DISL:DISL:1,2017-11-06T10:30:00Z,30.2513,-88.0778,2.168,1111122 
DISL,ioos:station:DISL:DISL:1,2017-11-06T11:30:00Z,30.2513,-88.0778,2.089,1111122 
DISL,ioos:station:DISL:DISL:1,2017-11-06T12:30:00Z,30.2513,-88.0778,2.054,1111122 
DISL,ioos:station:DISL:DISL:1,2017-11-06T13:30:00Z,30.2513,-88.0778,1.997,1111122 
DISL,ioos:station:DISL:DISL:1,2017-11-06T14:30:00Z,30.2513,-88.0778,1.955,1111122 
DISL,ioos:station:DISL:DISL:1,2017-11-06T15:30:00Z,30.2513,-88.0778,1.921,1111122 
DISL,ioos:station:DISL:DISL:1,2017-11-06T16:30:00Z,30.2513,-88.0778,1.902,1111122 
DISL,ioos:station:DISL:DISL:1,2017-11-06T17:30:00Z,30.2513,-88.0778,1.911,1111122 
DISL,ioos:station:DISL:DISL:1,2017-11-06T18:00:00Z,30.2513,-88.0778,1.912,1111122 
DISL,ioos:station:DISL:DISL:1,2017-11-06T19:30:00Z,30.2513,-88.0778,1.95,1111122 
DISL,ioos:station:DISL:DISL:1,2017-11-06T20:30:00Z,30.2513,-88.0778,1.988,1111122 
DISL,ioos:station:DISL:DISL:1,2017-11-06T21:30:00Z,30.2513,-88.0778,2.045,1111122 
DISL,ioos:station:DISL:DISL:1,2017-11-06T22:30:00Z,30.2513,-88.0778,2.107,1111122 
DISL,ioos:station:DISL:DISL:1,2017-11-06T23:30:00Z,30.2513,-88.0778,2.17,1111122 
DISL,ioos:station:DISL:DISL:1,2017-11-07T00:30:00Z,30.2513,-88.0778,2.24,1111122 
DISL,ioos:station:DISL:DISL:1,2017-11-07T01:30:00Z,30.2513,-88.0778,2.31,1111122 
DISL,ioos:station:DISL:DISL:1,2017-11-07T02:30:00Z,30.2513,-88.0778,2.369,1111122 
DISL,ioos:station:DISL:DISL:1,2017-11-07T03:30:00Z,30.2513,-88.0778,2.41,1111122 
DISL,ioos:station:DISL:DISL:1,2017-11-07T04:30:00Z,30.2513,-88.0778,2.44,1111122 
DISL,ioos:station:DISL:DISL:1,2017-11-07T05:30:00Z,30.2513,-88.0778,2.457,1111122 
DISL,ioos:station:DISL:DISL:1,2017-11-07T06:00:00Z,30.2513,-88.0778,2.448,1111122 
DISL,ioos:station:DISL:DISL:1,2017-11-07T08:00:00Z,30.2513,-88.0778,2.372,1111122 
DISL,ioos:station:DISL:DISL:1,2017-11-07T10:00:00Z,30.2513,-88.0778,2.235,1111122 
DISL,ioos:station:DISL:DISL:1,2017-11-07T11:30:00Z,30.2513,-88.0778,2.135,1111122 
DISL,ioos:station:DISL:DISL:1,2017-11-07T12:30:00Z,30.2513,-88.0778,2.077,1111122 
DISL,ioos:station:DISL:DISL:1,2017-11-07T13:00:00Z,30.2513,-88.0778,2.006,1111122 
DISL,ioos:station:DISL:DISL:1,2017-11-07T14:30:00Z,30.2513,-88.0778,1.973,1111122 
DISL,ioos:station:DISL:DISL:1,2017-11-07T15:30:00Z,30.2513,-88.0778,1.921,1111122 
DISL,ioos:station:DISL:DISL:1,2017-11-07T16:30:00Z,30.2513,-88.0778,1.903,1111122 
DISL,ioos:station:DISL:DISL:1,2017-11-07T17:30:00Z,30.2513,-88.0778,1.922,1111122 
DISL,ioos:station:DISL:DISL:1,2017-11-07T18:30:00Z,30.2513,-88.0778,1.929,1111122 
DISL,ioos:station:DISL:DISL:1,2017-11-07T19:30:00Z,30.2513,-88.0778,1.951,1111122 
DISL,ioos:station:DISL:DISL:1,2017-11-07T20:30:00Z,30.2513,-88.0778,2.015,1111122 
DISL,ioos:station:DISL:DISL:1,2017-11-07T21:30:00Z,30.2513,-88.0778,2.03,1111122 
DISL,ioos:station:DISL:DISL:1,2017-11-07T22:30:00Z,30.2513,-88.0778,2.1,1111122 
DISL,ioos:station:DISL:DISL:1,2017-11-07T23:30:00Z,30.2513,-88.0778,2.163,1111122 
DISL,ioos:station:DISL:DISL:1,2017-11-08T00:30:00Z,30.2513,-88.0778,2.238,1111122 
DISL,ioos:station:DISL:DISL:1,2017-11-08T01:30:00Z,30.2513,-88.0778,2.309,1111122 
DISL,ioos:station:DISL:DISL:1,2017-11-08T02:30:00Z,30.2513,-88.0778,2.366,1111122 
DISL,ioos:station:DISL:DISL:1,2017-11-08T03:30:00Z,30.2513,-88.0778,2.415,1111122 
DISL,ioos:station:DISL:DISL:1,2017-11-08T05:30:00Z,30.2513,-88.0778,2.479,1111122 
DISL,ioos:station:DISL:DISL:1,2017-11-08T06:30:00Z,30.2513,-88.0778,2.475,1111122 
DISL,ioos:station:DISL:DISL:1,2017-11-08T07:30:00Z,30.2513,-88.0778,2.453,1111122 
DISL,ioos:station:DISL:DISL:1,2017-11-08T08:30:00Z,30.2513,-88.0778,2.404,1111122 
DISL,ioos:station:DISL:DISL:1,2017-11-08T09:30:00Z,30.2513,-88.0778,2.334,1111122 
DISL,ioos:station:DISL:DISL:1,2017-11-08T10:30:00Z,30.2513,-88.0778,2.272,1111122 
DISL,ioos:station:DISL:DISL:1,2017-11-08T11:30:00Z,30.2513,-88.0778,2.195,1111122 
DISL,ioos:station:DISL:DISL:1,2017-11-08T12:30:00Z,30.2513,-88.0778,2.15,1111122 
DISL,ioos:station:DISL:DISL:1,2017-11-08T13:30:00Z,30.2513,-88.0778,2.071,1111122 
DISL,ioos:station:DISL:DISL:1,2017-11-08T14:30:00Z,30.2513,-88.0778,2.046,1111122 
DISL,ioos:station:DISL:DISL:1,2017-11-08T15:30:00Z,30.2513,-88.0778,1.981,1111122 
DISL,ioos:station:DISL:DISL:1,2017-11-08T16:30:00Z,30.2513,-88.0778,1.943,1111122 
DISL,ioos:station:DISL:DISL:1,2017-11-08T17:30:00Z,30.2513,-88.0778,1.916,1111122 
DISL,ioos:station:DISL:DISL:1,2017-11-08T18:30:00Z,30.2513,-88.0778,1.918,1111122 
DISL,ioos:station:DISL:DISL:1,2017-11-08T19:30:00Z,30.2513,-88.0778,1.938,1111122 
DISL,ioos:station:DISL:DISL:1,2017-11-08T20:30:00Z,30.2513,-88.0778,1.992,1111122 
DISL,ioos:station:DISL:DISL:1,2017-11-08T21:30:00Z,30.2513,-88.0778,1.982,1111122 
DISL,ioos:station:DISL:DISL:1,2017-11-08T22:00:00Z,30.2513,-88.0778,2.024,1111122 
DISL,ioos:station:DISL:DISL:1,2017-11-08T23:30:00Z,30.2513,-88.0778,2.083,1111122 
DISL,ioos:station:DISL:DISL:1,2017-11-09T00:30:00Z,30.2513,-88.0778,2.143,1111122 
DISL,ioos:station:DISL:DISL:1,2017-11-09T01:30:00Z,30.2513,-88.0778,2.179,1111122 
DISL,ioos:station:DISL:DISL:1,2017-11-09T02:30:00Z,30.2513,-88.0778,2.236,1111122 
DISL,ioos:station:DISL:DISL:1,2017-11-09T03:30:00Z,30.2513,-88.0778,2.318,1111122 
DISL,ioos:station:DISL:DISL:1,2017-11-09T04:00:00Z,30.2513,-88.0778,2.335,1111122 
DISL,ioos:station:DISL:DISL:1,2017-11-09T05:30:00Z,30.2513,-88.0778,2.423,1111122 
DISL,ioos:station:DISL:DISL:1,2017-11-09T06:00:00Z,30.2513,-88.0778,2.407,1111122 
DISL,ioos:station:DISL:DISL:1,2017-11-09T07:30:00Z,30.2513,-88.0778,2.432,1111122 
DISL,ioos:station:DISL:DISL:1,2017-11-09T08:30:00Z,30.2513,-88.0778,2.396,1111122 
DISL,ioos:station:DISL:DISL:1,2017-11-09T09:30:00Z,30.2513,-88.0778,2.353,1111122 
DISL,ioos:station:DISL:DISL:1,2017-11-09T10:30:00Z,30.2513,-88.0778,2.32,1111122 
DISL,ioos:station:DISL:DISL:1,2017-11-09T11:30:00Z,30.2513,-88.0778,2.264,1111122 
DISL,ioos:station:DISL:DISL:1,2017-11-09T12:30:00Z,30.2513,-88.0778,2.201,1111122 
DISL,ioos:station:DISL:DISL:1,2017-11-09T13:30:00Z,30.2513,-88.0778,2.119,1111122 
DISL,ioos:station:DISL:DISL:1,2017-11-09T14:30:00Z,30.2513,-88.0778,2.059,1111122 
DISL,ioos:station:DISL:DISL:1,2017-11-09T15:30:00Z,30.2513,-88.0778,2.002,1111122 
DISL,ioos:station:DISL:DISL:1,2017-11-09T16:30:00Z,30.2513,-88.0778,1.942,1111122 
DISL,ioos:station:DISL:DISL:1,2017-11-09T17:30:00Z,30.2513,-88.0778,1.904,1111122 
DISL,ioos:station:DISL:DISL:1,2017-11-09T18:30:00Z,30.2513,-88.0778,1.91,1111122 
DISL,ioos:station:DISL:DISL:1,2017-11-09T19:30:00Z,30.2513,-88.0778,1.884,1111122 
DISL,ioos:station:DISL:DISL:1,2017-11-09T20:30:00Z,30.2513,-88.0778,1.911,1111122 
DISL,ioos:station:DISL:DISL:1,2017-11-09T21:30:00Z,30.2513,-88.0778,1.916,1111122 
DISL,ioos:station:DISL:DISL:1,2017-11-09T22:30:00Z,30.2513,-88.0778,1.985,1111122 
DISL,ioos:station:DISL:DISL:1,2017-11-09T23:30:00Z,30.2513,-88.0778,2.007,1111122 
DISL,ioos:station:DISL:DISL:1,2017-11-10T00:30:00Z,30.2513,-88.0778,2.061,1111122 
DISL,ioos:station:DISL:DISL:1,2017-11-10T01:30:00Z,30.2513,-88.0778,2.204,1111122 
DISL,ioos:station:DISL:DISL:1,2017-11-10T02:30:00Z,30.2513,-88.0778,2.137,1111122 
DISL,ioos:station:DISL:DISL:1,2017-11-10T03:30:00Z,30.2513,-88.0778,2.191,1111122 
DISL,ioos:station:DISL:DISL:1,2017-11-10T04:30:00Z,30.2513,-88.0778,2.231,1111122 
DISL,ioos:station:DISL:DISL:1,2017-11-10T05:30:00Z,30.2513,-88.0778,2.232,1111122 
DISL,ioos:station:DISL:DISL:1,2017-11-10T06:30:00Z,30.2513,-88.0778,2.303,1111122 
DISL,ioos:station:DISL:DISL:1,2017-11-10T07:30:00Z,30.2513,-88.0778,2.32,1111122 
DISL,ioos:station:DISL:DISL:1,2017-11-10T08:30:00Z,30.2513,-88.0778,2.33,1111122 
DISL,ioos:station:DISL:DISL:1,2017-11-10T09:30:00Z,30.2513,-88.0778,2.337,1111122 
DISL,ioos:station:DISL:DISL:1,2017-11-10T10:30:00Z,30.2513,-88.0778,2.331,1111122 
DISL,ioos:station:DISL:DISL:1,2017-11-10T11:30:00Z,30.2513,-88.0778,2.283,1111122 
DISL,ioos:station:DISL:DISL:1,2017-11-10T12:30:00Z,30.2513,-88.0778,2.235,1111122 
DISL,ioos:station:DISL:DISL:1,2017-11-10T13:30:00Z,30.2513,-88.0778,2.206,1111122 
DISL,ioos:station:DISL:DISL:1,2017-11-10T14:30:00Z,30.2513,-88.0778,2.146,1111122 
DISL,ioos:station:DISL:DISL:1,2017-11-10T15:30:00Z,30.2513,-88.0778,2.084,1111122 
DISL,ioos:station:DISL:DISL:1,2017-11-10T16:30:00Z,30.2513,-88.0778,2.042,1111122 
DISL,ioos:station:DISL:DISL:1,2017-11-10T17:30:00Z,30.2513,-88.0778,2.0,1111122 
DISL,ioos:station:DISL:DISL:1,2017-11-10T18:30:00Z,30.2513,-88.0778,1.956,1111122 
DISL,ioos:station:DISL:DISL:1,2017-11-10T19:30:00Z,30.2513,-88.0778,1.949,1111122 
DISL,ioos:station:DISL:DISL:1,2017-11-10T20:30:00Z,30.2513,-88.0778,1.939,1111122 
DISL,ioos:station:DISL:DISL:1,2017-11-10T21:30:00Z,30.2513,-88.0778,1.969,1111122 
DISL,ioos:station:DISL:DISL:1,2017-11-10T22:30:00Z,30.2513,-88.0778,2.001,1111122 
DISL,ioos:station:DISL:DISL:1,2017-11-10T23:30:00Z,30.2513,-88.0778,2.022,1111122 
DISL,ioos:station:DISL:DISL:1,2017-11-11T00:30:00Z,30.2513,-88.0778,2.059,1111122 
DISL,ioos:station:DISL:DISL:1,2017-11-11T01:30:00Z,30.2513,-88.0778,2.08,1111122 
DISL,ioos:station:DISL:DISL:1,2017-11-11T02:30:00Z,30.2513,-88.0778,2.107,1111122 
DISL,ioos:station:DISL:DISL:1,2017-11-11T03:30:00Z,30.2513,-88.0778,2.142,1111122 
DISL,ioos:station:DISL:DISL:1,2017-11-11T04:30:00Z,30.2513,-88.0778,2.173,1111122 
DISL,ioos:station:DISL:DISL:1,2017-11-11T05:30:00Z,30.2513,-88.0778,2.211,1111122 
DISL,ioos:station:DISL:DISL:1,2017-11-11T06:30:00Z,30.2513,-88.0778,2.253,1111122 
DISL,ioos:station:DISL:DISL:1,2017-11-11T07:30:00Z,30.2513,-88.0778,2.268,1111122 
DISL,ioos:station:DISL:DISL:1,2017-11-11T08:30:00Z,30.2513,-88.0778,2.285,1111122 
DISL,ioos:station:DISL:DISL:1,2017-11-11T09:30:00Z,30.2513,-88.0778,2.303,1111122 
DISL,ioos:station:DISL:DISL:1,2017-11-11T10:30:00Z,30.2513,-88.0778,2.303,1111122 
DISL,ioos:station:DISL:DISL:1,2017-11-11T11:30:00Z,30.2513,-88.0778,2.296,1111122 
DISL,ioos:station:DISL:DISL:1,2017-11-11T12:30:00Z,30.2513,-88.0778,2.272,1111122 
DISL,ioos:station:DISL:DISL:1,2017-11-11T13:30:00Z,30.2513,-88.0778,2.236,1111122 
DISL,ioos:station:DISL:DISL:1,2017-11-11T14:30:00Z,30.2513,-88.0778,2.207,1111122 
DISL,ioos:station:DISL:DISL:1,2017-11-11T15:30:00Z,30.2513,-88.0778,2.174,1111122 
DISL,ioos:station:DISL:DISL:1,2017-11-11T16:30:00Z,30.2513,-88.0778,2.151,1111122 
DISL,ioos:station:DISL:DISL:1,2017-11-11T17:30:00Z,30.2513,-88.0778,2.125,1111122 
DISL,ioos:station:DISL:DISL:1,2017-11-11T18:30:00Z,30.2513,-88.0778,2.113,1111122 
DISL,ioos:station:DISL:DISL:1,2017-11-11T19:30:00Z,30.2513,-88.0778,2.08,1111122 
DISL,ioos:station:DISL:DISL:1,2017-11-11T20:30:00Z,30.2513,-88.0778,2.086,1111122 
DISL,ioos:station:DISL:DISL:1,2017-11-11T21:30:00Z,30.2513,-88.0778,2.094,1111122 
DISL,ioos:station:DISL:DISL:1,2017-11-11T22:00:00Z,30.2513,-88.0778,2.084,1111122 
DISL,ioos:station:DISL:DISL:1,2017-11-11T23:30:00Z,30.2513,-88.0778,2.127,1111122 
DISL,ioos:station:DISL:DISL:1,2017-11-12T00:30:00Z,30.2513,-88.0778,2.161,1111122 
DISL,ioos:station:DISL:DISL:1,2017-11-12T01:30:00Z,30.2513,-88.0778,2.203,1111122 
DISL,ioos:station:DISL:DISL:1,2017-11-12T02:00:00Z,30.2513,-88.0778,2.231,1111122 
DISL,ioos:station:DISL:DISL:1,2017-11-12T04:30:00Z,30.2513,-88.0778,2.309,1111122 
DISL,ioos:station:DISL:DISL:1,2017-11-12T05:30:00Z,30.2513,-88.0778,2.336,1111122 
DISL,ioos:station:DISL:DISL:1,2017-11-12T06:30:00Z,30.2513,-88.0778,2.342,1111122 
DISL,ioos:station:DISL:DISL:1,2017-11-12T07:30:00Z,30.2513,-88.0778,2.361,1111122 
DISL,ioos:station:DISL:DISL:1,2017-11-12T10:30:00Z,30.2513,-88.0778,2.318,1111122 
DISL,ioos:station:DISL:DISL:1,2017-11-12T11:30:00Z,30.2513,-88.0778,2.31,1111122 
DISL,ioos:station:DISL:DISL:1,2017-11-12T13:00:00Z,30.2513,-88.0778,2.284,1111122 
DISL,ioos:station:DISL:DISL:1,2017-11-12T17:30:00Z,30.2513,-88.0778,2.151,1111122 
DISL,ioos:station:DISL:DISL:1,2017-11-12T18:30:00Z,30.2513,-88.0778,2.131,1111122 
DISL,ioos:station:DISL:DISL:1,2017-11-12T19:30:00Z,30.2513,-88.0778,2.126,1111122 
DISL,ioos:station:DISL:DISL:1,2017-11-12T20:00:00Z,30.2513,-88.0778,2.161,1111122 
DISL,ioos:station:DISL:DISL:1,2017-11-12T21:30:00Z,30.2513,-88.0778,2.172,1111122 
DISL,ioos:station:DISL:DISL:1,2017-11-12T22:30:00Z,30.2513,-88.0778,2.178,1111122 
DISL,ioos:station:DISL:DISL:1,2017-11-12T23:00:00Z,30.2513,-88.0778,2.18,1111122 
DISL,ioos:station:DISL:DISL:1,2017-11-13T01:30:00Z,30.2513,-88.0778,2.287,1111122 
DISL,ioos:station:DISL:DISL:1,2017-11-13T02:30:00Z,30.2513,-88.0778,2.254,1111122 
DISL,ioos:station:DISL:DISL:1,2017-11-13T06:30:00Z,30.2513,-88.0778,2.274,1111122 
DISL,ioos:station:DISL:DISL:1,2017-11-13T07:30:00Z,30.2513,-88.0778,2.257,1111122 
DISL,ioos:station:DISL:DISL:1,2017-11-13T08:30:00Z,30.2513,-88.0778,2.262,1111122 
DISL,ioos:station:DISL:DISL:1,2017-11-13T09:30:00Z,30.2513,-88.0778,2.255,1111122 
DISL,ioos:station:DISL:DISL:1,2017-11-13T10:30:00Z,30.2513,-88.0778,2.236,1111122 
DISL,ioos:station:DISL:DISL:1,2017-11-13T11:30:00Z,30.2513,-88.0778,2.233,1111122 
DISL,ioos:station:DISL:DISL:1,2017-11-13T12:00:00Z,30.2513,-88.0778,2.22,1111122 
DISL,ioos:station:DISL:DISL:1,2017-11-13T13:30:00Z,30.2513,-88.0778,2.196,1111122 
DISL,ioos:station:DISL:DISL:1,2017-11-13T14:30:00Z,30.2513,-88.0778,2.192,1111122 
DISL,ioos:station:DISL:DISL:1,2017-11-13T15:30:00Z,30.2513,-88.0778,2.175,1111122 